Terminal Aerodrome Forecast
Issued by NWS Blacksburg, VA

Current Version | Previous Version | Graphics & Text | Print | Product List | Glossary On
Versions: 1 2 3 4 5 6 7 8 9 10 11 12 13 14 15
000
FTUS41 KRNK 231132
TAFBLF
TAF
KBLF 231132Z 2312/2412 00000KT 3SM BR FEW200
     FM231500 05006KT P6SM FEW200
     FM240200 13004KT P6SM SKC=

USA.gov is the U.S. government's official web portal to all federal, state and local government web resources and services.